Terug naar catalogus

SL-12 DEB

ActiefHEO
NORAD 24990·DEBRIS·🇷🇺 Russia

Gelanceerd Sep 16, 1987 vanaf Baikonur Cosmodrome

Loading…

Volgende Passages (komende 24 uur)

TLE

VersSource: Space-Track

Epoch: Sep 14, 2026, 07:24 UTC

1 24990U 87079J   26257.30853832  .00000097  00000-0  38509-3 0  9993
2 24990  64.7152  64.6712 5328288  16.5872 355.6686  4.81059275508601

Volg SL-12 DEB in realtime met AllMySat

Download on the App Store